Mazar-I-Sharif, Afghanistan

12:38 AM AFT on April 24, 2018 (GMT +0430)
Mazar

Weather History for OAMS - December, 2013

Change the Weather History Date:

Friday, December 13, 2013

  Actual Average Record
Temperature  
Mean Temperature 50 °F -  
Max Temperature 60 °F 49 °F - ()
Min Temperature 41 °F 30 °F - ()
Degree Days  
Heating Degree Days 14    
Moisture  
Dew Point 41 °F    
Average Humidity 78    
Maximum Humidity 100    
Minimum Humidity 45    
Precipitation  
Precipitation 0.00 in 0.03 in - ()
Sea Level Pressure  
Sea Level Pressure 30.16 in    
Wind  
Wind Speed 5 mph ()    
Max Wind Speed 17 mph    
Max Gust Speed -    
Visibility 3.4 miles    
Events      
T = Trace of Precipitation, MM = Missing Value Source: Averaged Metar Reports

Daily Weather History Graph

Daily Weather History Graph

Search for Another Location

Airport or City:

Astronomy

Dec. 13, 2013 Rise Set
Actual Time 7:04 AM AFT 4:45 PM AFT
Civil Twilight 6:36 AM AFT 5:14 PM AFT
Nautical Twilight 6:03 AM AFT 5:47 PM AFT
Astronomical Twilight 5:32 AM AFT 6:18 PM AFT
Moon 2:08 PM AFT (12/13) 3:06 AM AFT (12/13)
Length of Visible Light 10h 38m
Length of Day
9h 40m
Waxing Gibbous, 85% of the Moon is Illuminated
Dec 13
Waxing Gibbous
Dec 17
Full
Dec 25
Last Quarter
Jan 1
New
Jan 8
First Quarter

Hourly Weather History & Observations

Time (AFT) Temp. Windchill Dew Point Humidity Pressure Visibility Wind Dir Wind Speed Gust Speed Precip Events Conditions
12:14 AM 42.8 °F 40.1 °F 42.8 °F 100% 30.18 in 0.7 mi SW 4.6 mph - N/A   Scattered Clouds
12:20 AM 42.8 °F 40.1 °F 42.8 °F 100% 30.18 in 0.6 mi SW 4.6 mph - N/A   Scattered Clouds
1:20 AM 41.0 °F 39.0 °F 41.0 °F 100% 30.15 in 0.7 mi WSW 3.5 mph - N/A   Partly Cloudy
1:50 AM 41.0 °F - 39.2 °F 93% 30.15 in 1.1 mi West 2.3 mph - N/A   Scattered Clouds
2:20 AM 42.8 °F 40.1 °F 41.0 °F 93% 30.12 in 2.5 mi West 4.6 mph - N/A   Scattered Clouds
3:20 AM 42.8 °F 38.0 °F 41.0 °F 93% 30.12 in 2.8 mi West 8.1 mph - N/A   Partly Cloudy
3:50 AM 42.8 °F 39.3 °F 41.0 °F 93% 30.12 in 3.1 mi WSW 5.8 mph - N/A   Partly Cloudy
4:20 AM 42.8 °F 39.3 °F 41.0 °F 93% 30.12 in 3.1 mi WNW 5.8 mph - N/A   Partly Cloudy
5:20 AM 42.8 °F 40.1 °F 39.2 °F 87% 30.15 in 3.7 mi WNW 4.6 mph - N/A   Partly Cloudy
6:20 AM 41.0 °F 38.0 °F 39.2 °F 93% 30.15 in 3.7 mi West 4.6 mph - N/A   Partly Cloudy
7:50 AM 42.8 °F 39.3 °F 39.2 °F 87% 30.18 in 3.7 mi WSW 5.8 mph - N/A   Scattered Clouds
7:53 AM 42.8 °F 41.1 °F 39.2 °F 87% 30.18 in 1.9 mi West 3.5 mph - N/A   Smoke
7:58 AM 42.8 °F 41.1 °F 39.2 °F 87% 30.18 in 0.7 mi West 3.5 mph - N/A   Smoke
8:20 AM 42.8 °F 40.1 °F 41.0 °F 93% 30.18 in 0.6 mi West 4.6 mph - N/A   Mostly Cloudy
9:20 AM 44.6 °F 43.1 °F 41.0 °F 87% 30.21 in 0.6 mi WNW 3.5 mph - N/A   Smoke
10:20 AM 50.0 °F - 44.6 °F 82% 30.21 in 0.9 mi West 2.3 mph - N/A   Smoke
10:50 AM 51.8 °F - 44.6 °F 76% 30.21 in 1.1 mi NNE 2.3 mph - N/A   Smoke
11:20 AM 55.4 °F - 44.6 °F 67% 30.21 in 1.6 mi NW 1.2 mph - N/A   Smoke
11:54 AM 57.2 °F - 46.4 °F 67% 30.18 in - Variable 1.2 mph - N/A   Smoke
12:20 PM 59.0 °F - 44.6 °F 59% 30.15 in 3.1 mi North 5.8 mph - N/A   Haze
1:20 PM 60.8 °F - 41.0 °F 48% 30.15 in 6.2 mi East 12.7 mph - N/A   Mostly Cloudy
2:20 PM 60.8 °F - 39.2 °F 45% 30.15 in 6.2 mi East 15.0 mph - N/A   Mostly Cloudy
3:20 PM 59.0 °F - 42.8 °F 55% 30.12 in 6.2 mi ENE 17.3 mph - N/A   Mostly Cloudy
4:20 PM 55.4 °F - 44.6 °F 67% 30.12 in 6.2 mi ENE 11.5 mph - N/A   Mostly Cloudy
5:20 PM 53.6 °F - 41.0 °F 62% 30.15 in 6.2 mi ENE 10.4 mph - N/A   Mostly Cloudy
6:20 PM 53.6 °F - 39.2 °F 58% 30.15 in 6.2 mi ENE 13.8 mph - N/A   Scattered Clouds
7:20 PM 53.6 °F - 39.2 °F 58% 30.15 in 6.2 mi East 6.9 mph - N/A   Scattered Clouds
8:20 PM 50.0 °F - 41.0 °F 71% 30.15 in 6.2 mi Variable 1.2 mph - N/A   Scattered Clouds
9:20 PM 50.0 °F - 41.0 °F 71% 30.15 in 6.2 mi East 5.8 mph - N/A   Mostly Cloudy
10:20 PM 50.0 °F - 41.0 °F 71% 30.15 in 5.6 mi WSW 5.8 mph - N/A   Mostly Cloudy
11:20 PM 48.2 °F - 41.0 °F 76% 30.12 in 5.6 mi Variable 1.2 mph - N/A   Scattered Clouds